Flag for Belgium Weather past 2 weeks in Liège, Belgium

Now
54 °F

Sunny.


Feels Like: 54 °F
Forecast: 48 / 69 °F
Wind: 2 mph from North

Location: Bierset

Current Time: May 23, 2015 at 9:46:10 AM

Latest Report: May 23, 2015 at 8:50 AM


Visibility: 10 mi

Pressure: 30.18 "Hg

Humidity: 77%

Dew point: 46 °F

Location of LiègeLocation

Historic Weather in Liège — Graph

°F

Liège temperature yesterday

Maximum temperature yesterday: 66 °F (at 2:50 PM)
Minimum temperature yesterday: 50 °F (at 3:50 AM)
Average temperature yesterday: 58 °F

Past Weeks' High & Low Weather Summary

 TemperatureHumidityPressure
High77 °F (May 11, 2:50 PM)94% (May 14, 9:20 PM)30.36 "Hg (May 14, 9:20 PM)
Low39 °F (May 21, 2:50 AM)34% (May 11, 3:50 PM)29.68 "Hg (May 18, 6:50 PM)
Average55 °F68%30.08 "Hg
* Reported May 8 8:20 AM — May 23 8:20 AM, Liège, Weather by CustomWeather, © 2015

Note: Actual official high and low records may vary slightly from our data, if they occured in-between our weather recording intervals... More about our weather records

Advertising

Liège weather history for previous 24 hours

 ConditionsComfort  
Time TempWeatherWind HumidityBarometerVisibility
8:20 AM
Sat, May 23
52 °FPassing clouds.5 mph82%30.18 "HgN/A
7:50 AM52 °FSunny.3 mph82%30.18 "Hg10 mi
7:20 AM50 °FSunny.3 mph88%30.18 "Hg10 mi
6:50 AM52 °FSunny.2 mph82%30.18 "Hg10 mi
6:20 AM50 °FClear.2 mph88%30.18 "Hg10 mi
5:50 AM52 °FClear.2 mph82%30.18 "Hg10 mi
5:20 AM50 °FClear.2 mph82%30.18 "Hg10 mi
4:50 AM50 °FClear.1 mph76%30.18 "Hg10 mi
4:20 AM52 °FClear.1 mph77%30.18 "Hg10 mi
3:50 AM52 °FClear.2 mph77%30.18 "Hg10 mi
3:20 AM52 °FClear.1 mph77%30.18 "Hg10 mi
2:50 AM52 °FClear.2 mph77%30.21 "Hg10 mi
2:20 AM52 °FClear.1 mph82%30.21 "Hg10 mi
1:50 AM50 °FPassing clouds.3 mph82%30.21 "HgN/A
1:20 AM50 °FClear.6 mph82%30.21 "Hg10 mi
12:50 AM52 °FClear.3 mph77%30.21 "Hg10 mi
12:20 AM52 °FClear.5 mph77%30.21 "Hg10 mi
11:50 PM
Fri, May 22
54 °FPassing clouds.5 mph77%30.21 "HgN/A
10:50 PM57 °FClear.3 mph63%30.21 "Hg10 mi
10:20 PM57 °FSunny.3 mph63%30.21 "Hg10 mi
9:50 PM59 °FSunny.2 mph59%30.21 "Hg10 mi
9:20 PM59 °FSunny.3 mph63%30.21 "Hg10 mi
8:50 PM61 °FSunny.3 mph59%30.21 "Hg10 mi
8:20 PM61 °FSunny.3 mph59%30.21 "Hg10 mi
7:50 PM61 °FSunny.5 mph55%30.21 "Hg10 mi
7:20 PM64 °FPassing clouds.3 mph46%30.21 "HgN/A
6:50 PM64 °FPassing clouds.6 mph43%30.21 "HgN/A
6:20 PM66 °FPassing clouds.5 mph40%30.21 "HgN/A
5:50 PM66 °FPassing clouds.6 mph43%30.21 "HgN/A
5:20 PM66 °FPassing clouds.7 mph43%30.24 "HgN/A
4:50 PM66 °FPassing clouds.6 mph40%30.24 "HgN/A
4:20 PM66 °FPassing clouds.7 mph40%30.24 "HgN/A
3:50 PM66 °FPassing clouds.7 mph43%30.24 "HgN/A
3:20 PM66 °FPassing clouds.5 mph43%30.27 "HgN/A
2:50 PM66 °FPassing clouds.7 mph43%30.27 "HgN/A
2:20 PM63 °FPassing clouds.7 mph45%30.27 "HgN/A
1:50 PM64 °FPassing clouds.6 mph43%30.27 "HgN/A
1:20 PM64 °FPassing clouds.5 mph43%30.30 "HgN/A
12:50 PM63 °FPassing clouds.6 mph42%30.30 "HgN/A
12:20 PM63 °FPassing clouds.6 mph45%30.30 "HgN/A
11:50 AM61 °FPassing clouds.2 mph45%30.30 "HgN/A
11:20 AM61 °FPassing clouds.6 mph48%30.33 "HgN/A
10:50 AM61 °FPassing clouds.3 mph52%30.33 "HgN/A
10:20 AM59 °FPassing clouds.3 mph55%30.33 "HgN/A
9:50 AM57 °FSunny.2 mph63%30.33 "Hg10 mi
9:20 AM55 °FSunny.3 mph67%30.33 "Hg10 mi
Weather by CustomWeather, © 2015

See weather overviewHow to use our weather pages